Regional Weather Roundup
Issued by NWS Charleston, SC

Current Version | Previous Version | Text Only | Print | Product List | Glossary On
Versions: 1 2 3 4 5 6 7 8 9 10 11 12 13 14 15 16 17 18 19 20 21 22 23 24 25 26 27 28 29 30 31 32 33 34 35 36 37 38 39 40 41 42 43 44 45 46 47 48 49 50
000
ASUS42 KCHS 301512
RWRCHS

REGIONAL WEATHER ROUNDUP
NATIONAL WEATHER SERVICE CHARLESTON SC
1100 AM EDT SAT MAY 30 2015

NOTE: "FAIR" INDICATES FEW OR NO CLOUDS BELOW 12,000 FEET WITH NO
SIGNIFICANT WEATHER AND/OR OBSTRUCTIONS TO VISIBILITY.

NOT ALL STATIONS ARE QUALITY CONTROLLED BY THE NATIONAL
WEATHER SERVICE. USE DATA WITH CAUTION...ESPECIALLY
DEWPOINT OBSERVATIONS.

SCZ027-030-031-034>040-042>050-301600-
...SOUTHEAST SOUTH CAROLINA...

CITY           SKY/WX    TMP DP  RH WIND       PRES   REMARKS
N CHARLESTON   MOSUNNY   84  66  54 E9        30.18S
WATERFRONT PAR   N/A     78  70  76 E8        30.15S
MOUNT PLEASANT FAIR      82  70  65 E8        30.18S
JOHNS ISLAND   MOSUNNY   82  70  65 E9        30.18S
PINOPOLIS        N/A     82  68  61 E6        30.12
MONCKS CORNER  FAIR      84  64  51 E3        30.19S
SUMMERVILLE    FAIR      82  68  61 NE7       30.19S
BEAUFORT MCAS  CLOUDY    81  70  69 E6        30.17R
BEAUFORT ARPT  PTSUNNY   81  72  74 E7        30.17R
HILTON HEAD IS PTSUNNY   81  72  74 E6        30.18R
WALTERBORO     PTSUNNY   81  68  65 NE5       30.19S
ALLENDALE      FAIR      79  68  69 CALM      30.18S

...SOUTHERN MIDLANDS AND PEE DEE...

CITY           SKY/WX    TMP DP  RH WIND       PRES   REMARKS
GEORGETOWN     NOT AVBL
KINGSTREE      NOT AVBL
ORANGEBURG     MOSUNNY   80  66  62 VRB5      30.20S
BARNWELL       FAIR      81  68  65 NE5       30.20S
AIKEN          PTSUNNY   79  61  53 S5        30.24S
MANNING        PTSUNNY   79  63  57 E5        30.20F
COLUMBIA       PTSUNNY   79  66  64 SE6       30.20F
SUMTER         PTSUNNY   80  65  60 SE5       30.19S
FLORENCE       MOSUNNY   81  65  58 E10       30.21S
MYRTLE BEACH   MOSUNNY   82  66  57 SE13      30.22F
N MYRTLE BEACH SUNNY     80  67  64 SE8       30.22S

$$

GAZ063-065-086>088-099>101-113>116-118-119-134>141-150-301600-
...SOUTHEAST GEORGIA...

CITY           SKY/WX    TMP DP  RH WIND       PRES   REMARKS
SAVANNAH ARPT  PTSUNNY   73  69  87 NE9       30.18R
HUNTER AAF     MOSUNNY   81  71  72 E9        30.14R
FORT STEWART   PTSUNNY   84  69  60 VRB6      30.14S
STATESBORO     CLOUDY    80  72  75 E5        30.17F
SYLVANIA       CLOUDY    82  71  70 NE5       30.18F
CLAXTON        FAIR      81  70  69 NE6       30.16F

...CSRA...CENTRAL AND FAR SOUTHEAST GEORGIA...

CITY           SKY/WX    TMP DP  RH WIND       PRES   REMARKS
THOMSON        PTSUNNY   81  69  67 S3        30.23F
AUGUSTA-BUSH   SUNNY     81  66  60 MISG      30.18F
AUGUSTA-DANIEL MOSUNNY   81  65  58 VRB6      30.20F
SWAINSBORO     PTSUNNY   81  70  69 N3        30.18F
VIDALIA        SUNNY     81  68  65 CALM      30.17S
EASTMAN        FAIR      82  70  65 SE3       30.19F
HAZLEHURST     PTSUNNY   83  70  64 E3        30.15F
ALMA           PTSUNNY   82  68  62 E6        30.16S
WAYCROSS       PTSUNNY   81  70  70 E3        30.15S
JESUP          PTSUNNY   86  72  62 SE6       30.15F HX  92
BAXLEY         CLOUDY    84  70  61 E5        30.15F
BRUNSWICK      PTSUNNY   77  70  78 SE6       30.16S
SAINT SIMONS   NOT AVBL

$$

SCZ027-028-034-036>038-045-046-048>050-GAZ119-141-301600-
...LAKE AND SUPPLEMENTAL COASTAL OBSERVATIONS...

STATION/POSITION TIME  TEMP    WIND        PRES    WAVE   SWELL
                       AIR SEA DIR/SP/G            HT/PER HT/PER/DIR
                 (UTC) (F)     (DEG/KT/KT) (MB)    (FT/S) (FT/S/D)
UPR LAKE MARION  NOT AVBL
WINYAH BAY       NOT AVBL
LAKE MURRAY      1400   74      90/  4/  6 1022.7S
ACE BASIN NERRS  NOT AVBL
FORT PULASKI     1400   77 80   90/ 10/ 12 1021.7F
SAPELO ISLAND    1400   80      70/  7     1021.0S

$$

ANZ835-935-AMZ111-154-330-350-352-354-370-450-454-472-301600-
...C-MAN AND BUOY OBSERVATIONS...

STATION/POSITION TIME  TEMP    WIND        PRES    WAVE   SWELL
                       AIR SEA DIR/SP/G            HT/PER HT/PER/DIR
                 (UTC) (F)     (DEG/KT/KT) (MB)    (FT/S) (FT/S/D)
BUOY 41004       1450   78 79   90/ 14/ 16 1021.3F   5/ 9   3/ 9
BUOY 41008       1450   75 78   80/  8/ 10 1021.4R   3/ 9   3/ 90/ 9
FOLLY BEACH CMAN 1500   79      80/  9/ 11 1022.2S
CAPERS NEARSHORE 1408   77      80/ 10/ 12 1022.2F
FRIPP NEARSHORE  1400   79      70/  6/  8 1021.2F


STATION/POSITION TIME  TEMP    WIND        PRES    WAVE   SWELL
                       AIR SEA DIR/SP/G            HT/PER HT/PER/DIR
                 (UTC) (F)     (DEG/KT/KT) (MB)    (FT/S) (FT/S/D)
5E ST. MARYS GA  1421      80                N/A     3/ 8
FRYING PAN BUOY  1450   77 75   80/  6/  6 1023.8R   4/ 9   3/130/ 9
BUOY 41025       1450   76 80  120/  6/ 10 1023.9S   3/ 9   3/ 90/ 9
CAPE LOOKOUT NC  1500   76      70/  7/  8 1023.4R
BUOY 41002       1450   75 75   80/ 12/ 12 1022.0R   6/ 8   5/ 90/ 8
BUOY 41010       1420   78 79   80/ 12/ 16 1019.7R
ST AUGUSTINE FL  1500   78 79   80/  8/  9 1021.1R


$$


USA.gov is the U.S. government's official web portal to all federal, state and local government web resources and services.